Location: San Gennaro Vesuviano
(40.8833°N, 14.5333°E)
Time: 21:26:38
(UTC+00:00)

SL-8 R/B - Pass Details

Date: 22 April 2021
Orbit: 656 x 667 km, 48.4° (Epoch: 10 May)

Event Time Altitude Azimuth Distance (km) Brightness Sun altitude
Rises 18:19:08 0° 299° (WNW) 3,005 9.6 -6.2°
Reaches altitude 10° 18:21:30 10° 301° (WNW) 2,090 8.0 -6.6°
Maximum altitude 18:26:21 80° 28° (NNE) 681 3.8 -7.4°
Enters shadow 18:31:06 10° 116° (ESE) 2,060 5.5 -8.3°
